User: anonymous   Login
Location: Unspecified
(0.0000°N, 0.0000°E)
Time: 02:05:53
(UTC+00:00)
Language:

NEE 01 PEGASUS - Orbit

View from above orbital plane
View from above orbital plane
View from above satellite
View from above satellite

Ground track
Ground track

The orbit data is extracted from the following two-line orbital elements,

1 39151U 13018B   18055.25089668  .00000142  00000-0  25819-4 0  9991
2 39151  97.9751 150.1321 0016056 317.6524  42.3447 14.79856164260810
Epoch (UTC): 24 February 2018 06:01:17
Eccentricity: 0.0016056
inclination: 97.9751°
perigee height: 618 km
apogee height: 641 km
right ascension of ascending node: 150.1321°
argument of perigee: 317.6524°
revolutions per day: 14.79856164
mean anomaly at epoch: 42.3447°
orbit number at epoch: 26081

The dashed part of the orbit path shows where the satellite is in the earth's shadow,  

DLR